TimePST,TemperatureF,Dew PointF,Humidity,Sea Level PressureIn,VisibilityMPH,Wind Direction,Wind SpeedMPH,Gust SpeedMPH,PrecipitationIn,Events,Conditions,WindDirDegrees,DateUTC
1:51 AM,52.0,28.9,41,30.14,10.0,North,4.6,-,N/A,,Clear,10,2013-02-14 09:51:00
4:51 AM,53.1,27.0,37,30.14,10.0,WSW,4.6,-,N/A,,Clear,250,2013-02-14 12:51:00
5:51 AM,51.1,34.0,52,30.13,10.0,NNW,4.6,-,N/A,,Clear,330,2013-02-14 13:51:00
6:51 AM,51.1,32.0,48,30.14,10.0,NNW,6.9,-,N/A,,Clear,340,2013-02-14 14:51:00
7:51 AM,57.0,30.9,37,30.14,10.0,Calm,Calm,-,N/A,,Clear,0,2013-02-14 15:51:00
8:51 AM,60.1,33.1,36,30.17,10.0,Calm,Calm,-,N/A,,Clear,0,2013-02-14 16:51:00
9:51 AM,60.1,41.0,49,30.18,10.0,Calm,Calm,-,N/A,,Clear,0,2013-02-14 17:51:00
10:51 AM,57.0,39.9,53,30.17,10.0,North,4.6,-,N/A,,Clear,360,2013-02-14 18:51:00
11:51 AM,62.1,46.0,56,30.14,10.0,NNE,6.9,-,N/A,,Clear,20,2013-02-14 19:51:00
12:51 PM,63.0,45.0,52,30.11,10.0,WNW,3.5,-,N/A,,Clear,290,2013-02-14 20:51:00
1:51 PM,66.9,36.0,32,30.08,10.0,Variable,4.6,-,N/A,,Clear,0,2013-02-14 21:51:00
2:51 PM,69.1,34.0,27,30.07,10.0,Calm,Calm,-,N/A,,Clear,0,2013-02-14 22:51:00
3:51 PM,66.0,45.0,47,30.09,10.0,WSW,3.5,-,N/A,,Clear,250,2013-02-14 23:51:00
4:51 PM,64.0,43.0,46,30.08,10.0,Calm,Calm,-,N/A,,Clear,0,2013-02-15 00:51:00
5:51 PM,64.9,27.0,24,30.10,10.0,WSW,8.1,-,N/A,,Clear,240,2013-02-15 01:51:00
6:51 PM,66.0,23.0,20,30.11,10.0,WSW,4.6,-,N/A,,Clear,250,2013-02-15 02:51:00
7:51 PM,64.9,21.9,19,30.12,10.0,WNW,3.5,-,N/A,,Clear,290,2013-02-15 03:51:00
8:51 PM,64.0,23.0,21,30.13,10.0,North,4.6,-,N/A,,Clear,10,2013-02-15 04:51:00
9:51 PM,62.1,25.0,24,30.15,10.0,ENE,5.8,-,N/A,,Clear,70,2013-02-15 05:51:00
10:51 PM,59.0,27.0,29,30.16,10.0,NNE,4.6,-,N/A,,Clear,20,2013-02-15 06:51:00
11:51 PM,63.0,25.0,24,30.14,10.0,ENE,10.4,-,N/A,,Clear,70,2013-02-15 07:51:00